STARLINK-11270 [DTC] (60999 NORAD) Tracking and Keplerian Element Data

This shows tracking and keplerian element data for the satellite.

Feedback or suggestion? Click here.




ElementValue
Catalog60999
NameSTARLINK-11270 [DTC]
Epoch Orbit609
Epoch Day286.91668981
Epoch Year2024
RAAN289.1234
Inclination53.1584
Eccentricity0.0001187
Argument of Perigee70.605
Mean Anonmoly41.7559
Mean Motion15.69749972
Decay Rate-0.00055456
L11 60999U 24158K 24286.91668981 -.00055456 00000+0 -45517-3 0 9994
L22 60999 53.1584 289.1234 0001187 70.6050 41.7559 15.69749972 6090



Live tracking and technical data element details for STARLINK-11270 [DTC] (NORAD 60999). STARLINK-11270 [DTC] can be tracked NOW for your location showing map with azimuth and elevation plus other details from your city location.







IsCatalogInMostPopularTable: catalog: 60999, numindb: 7
Update: records affected: 1



GetName: 60999 STARLINK-11270 [DTC]

Hit Count: updated at: Wed, 04 Dec 2024 17:47:19 GMT